KU4ME Weather Reports


Display with metric or nautical units.
time (UTC)temp
F
wind
direction
speed
MPH
gust
MPH
rain 1hr
in
rain 24hr
in
rain mn
in
humidity
%
barometer
mb
20260508225006 66 73 0.0 0.0 0.00 0.00 0.00 35 1012.4
20260508224006 67 73 0.0 5.0 0.00 0.00 0.00 33 1012.5
20260508223006 67 114 0.0 0.0 0.00 0.00 0.00 34 1012.6
20260508222006 68 114 0.0 0.0 0.00 0.00 0.00 34 1012.7
20260508221006 68 114 0.0 0.0 0.00 0.00 0.00 35 1012.6
20260508215006 69 114 0.0 0.0 0.00 0.00 0.00 30 1012.6
20260508214005 70 114 0.0 0.0 0.00 0.00 0.00 32 1012.6
20260508211006 71 114 0.0 0.0 0.00 0.00 0.00 32 1012.5
20260508210006 72 114 0.0 0.0 0.00 0.00 0.00 31 1012.6
20260508205006 72 114 0.0 0.0 0.00 0.00 0.00 28 1012.7
20260508204006 72 114 0.0 0.0 0.00 0.00 0.00 27 1012.6
20260508203006 73 114 0.0 0.0 0.00 0.00 0.00 31 1012.8
20260508202005 73 114 0.0 6.0 0.00 0.00 0.00 28 1012.8
20260508201005 73 90 0.0 2.0 0.00 0.00 0.00 28 1013.1
20260508200006 73 90 0.0 6.0 0.00 0.00 0.00 28 1013.1
20260508195006 73 95 1.0 3.0 0.00 0.00 0.00 27 1013.4
20260508193006 72 291 1.0 7.0 0.00 0.00 0.00 27 1014.2
20260508191006 72 27 0.0 0.0 0.00 0.00 0.00 29 1014.6
20260508190005 72 27 0.0 0.0 0.00 0.00 0.00 28 1014.6
20260508185005 72 27 0.0 2.0 0.00 0.00 0.00 29 1014.6
20260508184006 72 256 1.0 6.0 0.00 0.00 0.00 29 1014.8
20260508183005 72 103 0.0 0.0 0.00 0.00 0.00 28 1015.0
20260508182005 72 103 0.0 5.0 0.00 0.00 0.00 29 1015.1
20260508181005 72 167 0.0 0.0 0.00 0.00 0.00 27 1015.1
20260508180005 72 167 0.0 6.0 0.00 0.00 0.00 26 1015.3
20260508175005 72 133 0.0 6.0 0.00 0.00 0.00 29 1015.3
20260508174006 72 110 0.0 0.0 0.00 0.00 0.00 32 1015.4
20260508173006 71 110 0.0 5.0 0.00 0.00 0.00 34 1015.5
20260508172006 71 103 0.0 2.0 0.00 0.00 0.00 35 1015.7
20260508171005 70 103 0.0 0.0 0.00 0.00 0.00 36 1015.9
20260508170005 69 103 0.0 0.0 0.00 0.00 0.00 37 1016.1
20260508165006 69 103 0.0 0.0 0.00 0.00 0.00 35 1016.4
20260508164006 69 103 0.0 0.0 0.00 0.00 0.00 35 1016.8
20260508163006 68 103 0.0 0.0 0.00 0.00 0.00 39 1016.9
20260508162005 67 103 0.0 0.0 0.00 0.00 0.00 42 1016.9
20260508160005 66 124 0.0 0.0 0.00 0.00 0.00 44 1017.1
20260508155005 65 124 0.0 5.0 0.00 0.00 0.00 42 1017.2
20260508154005 64 152 0.0 0.0 0.00 0.00 0.00 49 1017.4
20260508153005 63 152 0.0 0.0 0.00 0.00 0.00 50 1017.5
20260508151004 60 152 0.0 0.0 0.00 0.00 0.00 52 1017.8
20260508145005 57 152 0.0 3.0 0.00 0.00 0.00 61 1017.8
20260508144005 56 277 0.0 0.0 0.00 0.00 0.00 73 1017.8
20260508143005 54 277 0.0 0.0 0.00 0.00 0.00 81 1017.8
20260508142005 53 277 0.0 0.0 0.00 0.01 0.00 86 1017.9
20260508141004 51 277 0.0 0.0 0.00 0.01 0.00 88 1017.9
20260508140005 50 277 0.0 0.0 0.00 0.01 0.00 92 1017.9
20260508135004 49 277 0.0 0.0 0.00 0.01 0.00 94 1017.9
20260508134005 49 277 0.0 0.0 0.00 0.01 0.00 95 1017.8
20260508133004 48 277 0.0 0.0 0.00 0.01 0.00 97 1018.0
20260508132004 47 277 0.0 0.0 0.00 0.01 0.00 98 1017.9
20260508131004 46 277 0.0 0.0 0.00 0.01 0.00 98 1017.7
20260508130005 46 277 0.0 0.0 0.00 0.01 0.00 98 1017.8
20260508124004 44 277 0.0 0.0 0.00 0.01 0.00 98 1017.8
20260508122005 43 277 0.0 0.0 0.00 0.01 0.00 98 1017.7
20260508115004 42 277 0.0 0.0 0.00 0.01 0.00 98 1017.3
20260508114004 42 277 0.0 0.0 0.00 0.01 0.00 98 1017.3
20260508113005 42 277 0.0 0.0 0.00 0.01 0.00 98 1017.2
20260508112004 41 277 0.0 0.0 0.00 0.01 0.00 98 1017.0
20260508111005 41 277 0.0 0.0 0.00 0.01 0.00 98 1016.9
20260508110005 41 277 0.0 0.0 0.00 0.01 0.00 97 1016.8
20260508105005 41 277 0.0 0.0 0.00 0.01 0.00 97 1016.4
20260508102005 42 277 0.0 0.0 0.00 0.01 0.00 98 1016.3
20260508101005 42 277 0.0 0.0 0.00 0.01 0.00 97 1016.2
20260508100005 42 277 0.0 0.0 0.00 0.01 0.00 97 1016.2
20260508094004 43 277 0.0 0.0 0.00 0.01 0.00 97 1016.1
20260508093004 43 277 0.0 0.0 0.00 0.01 0.00 97 1016.0
20260508092004 43 277 0.0 0.0 0.00 0.01 0.00 97 1015.9
20260508091004 43 277 0.0 0.0 0.00 0.02 0.00 96 1015.9
20260508090004 43 277 0.0 0.0 0.00 0.02 0.00 97 1015.8
20260508084004 44 277 0.0 0.0 0.00 0.02 0.00 96 1015.8
20260508082004 44 277 0.0 0.0 0.00 0.02 0.00 96 1015.7
20260508081004 44 277 0.0 0.0 0.00 0.02 0.00 96 1015.7
20260508080005 44 277 0.0 0.0 0.00 0.02 0.00 96 1015.8
20260508074004 45 277 0.0 0.0 0.00 0.02 0.00 95 1015.9
20260508073003 45 277 0.0 0.0 0.00 0.02 0.00 95 1015.8
20260508072005 45 277 0.0 0.0 0.00 0.02 0.00 95 1015.9
20260508071004 45 277 0.0 0.0 0.00 0.02 0.00 94 1015.8
20260508065004 46 277 0.0 0.0 0.00 0.02 0.00 94 1015.8
20260508064004 46 277 0.0 0.0 0.00 0.02 0.00 94 1015.8
20260508063004 46 277 0.0 0.0 0.00 0.02 0.00 94 1015.8
20260508062004 46 277 0.0 0.0 0.00 0.02 0.00 94 1015.9
20260508061004 46 277 0.0 0.0 0.00 0.02 0.00 93 1016.0
20260508060003 47 277 0.0 0.0 0.00 0.02 0.00 93 1016.1
20260508055003 47 277 0.0 0.0 0.00 0.02 0.00 93 1016.0
20260508053003 47 277 0.0 0.0 0.00 0.02 0.00 92 1016.0
20260508052003 48 277 0.0 0.0 0.00 0.02 0.00 92 1016.0
20260508051003 48 277 0.0 0.0 0.00 0.02 0.00 92 1016.0
20260508050004 48 277 0.0 0.0 0.00 0.02 0.00 92 1016.0
20260508045004 48 277 0.0 0.0 0.00 0.02 0.00 91 1015.9
20260508044007 49 277 0.0 0.0 0.00 0.02 0.00 91 1015.9
20260508043007 49 277 0.0 0.0 0.00 0.02 0.00 91 1015.7
20260508042007 49 277 0.0 0.0 0.00 0.02 0.00 90 1015.6
20260508041007 49 277 0.0 0.0 0.00 0.02 0.00 90 1015.5
20260508040007 49 277 0.0 0.0 0.00 0.02 0.00 89 1015.5
20260508035007 50 277 0.0 0.0 0.00 0.02 0.02 89 1015.5
20260508033007 50 277 0.0 0.0 0.00 0.02 0.02 88 1015.4
20260508032007 50 277 0.0 0.0 0.00 0.03 0.02 86 1015.5
20260508031007 51 277 0.0 0.0 0.00 0.03 0.02 86 1015.2
20260508030007 51 277 0.0 0.0 0.00 0.03 0.02 85 1015.3
20260508025007 51 277 0.0 0.0 0.00 0.03 0.02 84 1015.4
20260508024007 52 277 0.0 0.0 0.00 0.04 0.02 84 1015.3
20260508023007 52 277 0.0 0.0 0.00 0.04 0.02 83 1015.3
20260508021007 53 277 0.0 0.0 0.00 0.04 0.02 84 1014.9
20260508020006 53 277 0.0 0.0 0.00 0.04 0.02 83 1014.7
20260508015006 54 277 0.0 0.0 0.00 0.04 0.02 83 1014.6
20260508014007 54 277 0.0 0.0 0.00 0.04 0.02 82 1014.3
20260508013006 54 277 0.0 0.0 0.00 0.04 0.02 81 1014.3
20260508012006 55 277 0.0 0.0 0.00 0.04 0.02 77 1014.1
20260508011006 55 277 0.0 0.0 0.00 0.04 0.02 77 1013.9
20260508005006 56 277 0.0 0.0 0.00 0.04 0.02 77 1013.6
20260508004006 56 277 0.0 0.0 0.00 0.05 0.02 76 1013.5
20260508003007 57 277 0.0 0.0 0.00 0.05 0.02 75 1013.5
20260508002007 57 277 0.0 0.0 0.00 0.05 0.02 73 1013.3
20260508001007 58 277 0.0 0.0 0.00 0.05 0.02 70 1013.1
20260508000007 58 277 0.0 0.0 0.00 0.05 0.02 69 1013.0
20260507235006 59 277 0.0 0.0 0.00 0.06 0.02 70 1013.0
20260507234007 59 277 0.0 0.0 0.00 0.06 0.02 67 1013.0
20260507233007 60 277 0.0 0.0 0.00 0.06 0.02 65 1013.0
20260507232006 60 277 0.0 0.0 0.00 0.08 0.02 64 1013.0
20260507231006 61 277 0.0 0.0 0.00 0.09 0.02 64 1012.9
20260507230006 61 277 0.0 0.0 0.00 0.09 0.02 63 1013.0